This demonstration page uses our WeatherBlox Daily Observations layout. Learn more.

Left ArrowRight Arrow

39.51506, -84.39828

Hourly Observations for March 7, 2020

Temp ( °F °C ) Dew Point ( °F °C ) Humidity (%) Winds ( mph kmh ) Pressure ( in mb ) Visibility ( mi km ) Precip ( " mm )
12:15 am 00:15 Cloudy 35 1.4 23 -5.2 62 62 N 14 22 30.49 1033 10 16.0934 0 0
12:35 am 00:35 Cloudy 34 1.3 22 -5.7 60 60 N 12 19 30.5 1033 10 16.0934 0 0
12:55 am 00:55 Cloudy 34 1.2 22 -5.7 60 60 N 10 17 30.5 1033 10 16.0934 0 0
1:15 am 01:15 Cloudy 34 1.1 22 -5.6 61 61 N 7 11 30.5 1033 10 16.0934 0 0
1:35 am 01:35 Cloudy 34 1.1 22 -5.7 61 61 N 8 13 30.5 1033 10 16.0934 0 0
1:55 am 01:55 Cloudy 34 1.2 22 -5.6 61 61 N 8 13 30.5 1033 10 16.0934 0 0
2:15 am 02:15 Cloudy 34 1.1 22 -5.8 60 60 N 8 13 30.51 1033 10 16.0934 0 0
2:35 am 02:35 Cloudy 34 1.1 22 -5.8 60 60 N 9 15 30.51 1033 10 16.0934 0 0
2:55 am 02:55 Cloudy 34 1.1 22 -5.6 61 61 N 6 9 30.51 1033 10 16.0934 0 0
3:15 am 03:15 Cloudy 34 1 22 -5.4 63 63 NNE 8 13 30.51 1033 10 16.0934 0 0
3:35 am 03:35 Cloudy 33 0.8 22 -5.8 62 62 NNE 8 13 30.51 1033 10 16.0934 0 0
3:55 am 03:55 Cloudy 34 0.9 22 -5.8 61 61 N 6 9 30.52 1034 10 16.0934 0 0
4:15 am 04:15 Cloudy 33 0.7 22 -5.8 62 62 N 7 11 30.52 1034 10 16.0934 0 0
4:35 am 04:35 Cloudy 33 0.7 21 -5.9 62 62 N 7 11 30.52 1034 10 16.0934 0 0
4:55 am 04:55 Cloudy 33 0.5 21 -5.9 63 63 N 6 9 30.53 1034 10 16.0934 0 0
5:15 am 05:15 Cloudy 33 0.4 21 -6.2 62 62 N 9 15 30.53 1034 10 16.0934 0 0
5:35 am 05:35 Cloudy 32 -0.1 21 -6.2 64 64 N 5 7 30.55 1034 10 16.0934 0 0
5:55 am 05:55 Cloudy 32 -0.1 21 -5.9 65 65 Calm 30.56 1035 10 16.0934 0 0
6:15 am 06:15 Cloudy 32 0.1 22 -5.7 65 65 Calm 30.57 1035 10 16.0934 0 0
6:35 am 06:35 Cloudy 33 0.3 22 -5.6 65 65 NNW 5 7 30.57 1035 10 16.0934 0 0
6:55 am 06:55 Cloudy 33 0.4 22 -5.4 65 65 N 5 7 30.57 1035 10 16.0934 0 0
7:15 am 07:15 Cloudy 33 0.3 22 -5.4 66 66 NNE 5 7 30.58 1036 10 16.0934 0 0
7:35 am 07:35 Cloudy 32 0.1 22 -5.5 66 66 N 3 6 30.59 1036 10 16.0934 0 0
7:55 am 07:55 Partly Cloudy 33 0.7 23 -5.1 66 66 Calm 30.58 1036 10 16.0934 0 0
8:15 am 08:15 Sunny 34 1.1 22 -5.5 62 62 ENE 6 9 30.59 1036 10 16.0934 0 0
8:35 am 08:35 Sunny 35 1.7 22 -5.4 60 60 ENE 7 11 30.6 1036 10 16.0934 0 0
8:55 am 08:55 Sunny 35 1.8 22 -5.7 58 58 ENE 5 7 30.61 1037 10 16.0934 0 0
9:15 am 09:15 Sunny 35 1.8 21 -5.9 57 57 Calm 30.62 1037 10 16.0934 0 0
9:35 am 09:35 Sunny 35 1.9 21 -6 56 56 Calm 30.62 1037 10 16.0934 0 0
9:55 am 09:55 Sunny 37 2.8 22 -5.5 55 55 Calm 30.62 1037 10 16.0934 0 0
10:15 am 10:15 Sunny 38 3.2 22 -5.5 53 53 Calm 30.62 1037 10 16.0934 0 0
10:35 am 10:35 Sunny 38 3.3 23 -5.1 55 55 Calm 30.62 1037 10 16.0934 0 0
10:55 am 10:55 Sunny 38 3.4 21 -5.9 51 51 Calm 30.63 1037 10 16.0934 0 0
11:15 am 11:15 Sunny 39 3.8 22 -5.7 50 50 Calm 30.62 1037 10 16.0934 0 0
11:35 am 11:35 Sunny 41 4.8 22 -5.3 48 48 SSE 6 9 30.61 1037 10 16.0934 0 0
11:55 am 11:55 Sunny 41 4.8 22 -5.7 47 47 SSW 6 9 30.61 1037 10 16.0934 0 0
12:15 pm 12:15 Sunny 42 5.3 22 -5.5 46 46 Calm 30.6 1036 10 16.0934 0 0
12:35 pm 12:35 Sunny 43 6.1 23 -4.8 46 46 Calm 30.59 1036 10 16.0934 0 0
12:55 pm 12:55 Sunny 43 6.3 22 -5.3 44 44 Calm 30.58 1036 10 16.0934 0 0
1:15 pm 13:15 Sunny 44 6.9 23 -5 43 43 SE 5 7 30.57 1035 10 16.0934 0 0
1:35 pm 13:35 Sunny 45 7.1 23 -4.8 43 43 SSE 7 11 30.56 1035 10 16.0934 0 0
1:55 pm 13:55 Sunny 46 7.8 23 -4.9 41 41 Calm 30.54 1034 10 16.0934 0 0
2:15 pm 14:15 Sunny 46 7.9 22 -5.7 38 38 SSE 5 7 30.53 1034 10 16.0934 0 0
2:35 pm 14:35 Sunny 47 8.2 20 -6.5 35 35 SSE 3 6 30.53 1034 10 16.0934 0 0
2:55 pm 14:55 Sunny 47 8.3 19 -7.2 33 33 Calm 30.52 1034 10 16.0934 0 0
3:15 pm 15:15 Sunny 48 9.1 22 -5.8 35 35 Calm 30.52 1034 10 16.0934 0 0
3:35 pm 15:35 Sunny 47 8.6 20 -6.8 33 33 W 3 6 30.51 1033 10 16.0934 0 0
3:55 pm 15:55 Sunny 49 9.2 21 -5.9 34 34 SW 7 11 30.51 1033 10 16.0934 0 0
4:15 pm 16:15 Sunny 49 9.2 21 -6.3 33 33 Calm 30.5 1033 10 16.0934 0 0
4:35 pm 16:35 Sunny 49 9.7 21 -6.2 32 32 S 7 11 30.49 1033 10 16.0934 0 0
4:55 pm 16:55 Sunny 49 9.4 21 -5.9 34 34 WSW 7 11 30.49 1033 10 16.0934 0 0
5:15 pm 17:15 Sunny 49 9.4 20 -6.8 31 31 SSW 5 7 30.49 1033 10 16.0934 0 0
5:35 pm 17:35 Sunny 49 9.2 19 -7.1 31 31 S 7 11 30.48 1032 10 16.0934 0 0
5:55 pm 17:55 Sunny 48 8.8 20 -6.8 33 33 SW 7 11 30.48 1032 10 16.0934 0 0
6:15 pm 18:15 Sunny 46 7.8 20 -6.9 35 35 SW 3 6 30.48 1032 10 16.0934 0 0
6:35 pm 18:35 Sunny 44 6.9 18 -7.7 35 35 S 7 11 30.49 1032 10 16.0934 0 0
6:55 pm 18:55 Clear 44 6.8 19 -7.5 36 36 S 6 9 30.49 1032 10 16.0934 0 0
7:15 pm 19:15 Clear 40 4.3 24 -4.6 53 53 Calm 30.49 1033 10 16.0934 0 0
7:35 pm 19:35 Clear 37 2.5 26 -3.4 65 65 Calm 30.5 1033 10 16.0934 0 0
7:55 pm 19:55 Clear 35 1.6 26 -3.5 69 69 Calm 30.51 1033 10 16.0934 0 0
8:15 pm 20:15 Clear 33 0.5 25 -4.1 72 72 Calm 30.51 1033 10 16.0934 0 0
8:35 pm 20:35 Clear 35 1.5 24 -4.3 66 66 Calm 30.51 1033 10 16.0934 0 0
8:55 pm 20:55 Clear 33 0.3 25 -4.1 73 73 Calm 30.51 1033 10 16.0934 0 0
9:15 pm 21:15 Clear 32 -0.1 25 -3.7 77 77 Calm 30.53 1034 10 16.0934 0 0
9:35 pm 21:35 Clear 31 -0.4 24 -4.3 75 75 Calm 30.53 1034 10 16.0934 0 0
9:55 pm 21:55 Clear 31 -0.7 24 -4.7 75 75 Calm 30.53 1034 10 16.0934 0 0
10:15 pm 22:15 Clear 31 -0.7 23 -4.8 74 74 Calm 30.53 1034 10 16.0934 0 0
10:35 pm 22:35 Clear 30 -1.2 23 -4.8 77 77 Calm 30.54 1034 10 16.0934 0 0
10:55 pm 22:55 Clear 30 -1.1 24 -4.6 77 77 Calm 30.54 1034 10 16.0934 0 0
11:15 pm 23:15 Clear 29 -1.4 24 -4.6 79 79 Calm 30.53 1034 10 16.0934 0 0
11:35 pm 23:35 Clear 29 -1.6 23 -4.8 79 79 Calm 30.53 1034 10 16.0934 0 0
11:55 pm 23:55 Clear 29 -1.8 24 -4.3 83 83 Calm 30.53 1034 10 16.0934 0 0

Powered by AerisWeather